This is the latest recevied weather packets stored in our database for station/object WP4PW. If no packets are shown the sender has not sent any weather packets the latest 10 day(s).
| Time | Temp. | Humidity | Pressure | Rain* | Wind** | Luminosity | Snow |
|---|---|---|---|---|---|---|---|
| 1778173689 | 30.56° C | 77% | 1021.2 hPa | 0 mm | - | 802 W/m² | - |
| 1778173386 | 30° C | 76% | 1021.3 hPa | 0 mm | - | 804 W/m² | - |
| 1778173081 | 30° C | 79% | 1021.4 hPa | 0 mm | - | 810 W/m² | - |
| 1778172777 | 30.56° C | 76% | 1021.3 hPa | 0 mm | - | 812 W/m² | - |
| 1778172474 | 30° C | 77% | 1021.3 hPa | 0 mm | - | 814 W/m² | - |
| 1778172171 | 30.56° C | 77% | 1021.7 hPa | 0 mm | - | 817 W/m² | - |
| 1778171868 | 29.44° C | 79% | 1021.5 hPa | 0 mm | - | 821 W/m² | - |
| 1778171566 | 30° C | 77% | 1021.8 hPa | 0 mm | - | 822 W/m² | - |
| 1778171261 | 30.56° C | 79% | 1021.8 hPa | 0 mm | - | 826 W/m² | - |
| 1778170958 | 30° C | 77% | 1021.9 hPa | 0 mm | - | 822 W/m² | - |
| 1778170655 | 30.56° C | 76% | 1021.7 hPa | 0 mm | - | 822 W/m² | - |
| 1778170351 | 30.56° C | 74% | 1021.9 hPa | 0 mm | - | 822 W/m² | - |
| 1778170047 | 30.56° C | 74% | 1022 hPa | 0 mm | - | 822 W/m² | - |
| 1778169743 | 29.44° C | 77% | 1022 hPa | 0 mm | - | 829 W/m² | - |
| 1778169440 | 30° C | 79% | 1021.9 hPa | 0 mm | - | 845 W/m² | - |
| 1778169136 | 30° C | 79% | 1021.9 hPa | 0 mm | - | 771 W/m² | - |
| 1778168832 | 30.56° C | 76% | 1022.1 hPa | 0 mm | - | 835 W/m² | - |
| 1778168530 | 30° C | 77% | 1022.1 hPa | 0 mm | - | 813 W/m² | - |
| 1778168226 | 30° C | 77% | 1022.2 hPa | 0 mm | - | 809 W/m² | - |
| 1778167923 | 30° C | 79% | 1022.3 hPa | 0 mm | - | 803 W/m² | - |
| 1778167619 | 30° C | 79% | 1022.1 hPa | 0 mm | - | 804 W/m² | - |
| 1778167315 | 30° C | 77% | 1022.3 hPa | 0 mm | - | 791 W/m² | - |
| 1778167011 | 29.44° C | 78% | 1022.2 hPa | 0 mm | - | 791 W/m² | - |
| 1778166709 | 30° C | 76% | 1022.2 hPa | 0 mm | - | 786 W/m² | - |
| 1778166406 | 30° C | 79% | 1022.2 hPa | 0 mm | - | 786 W/m² | - |
* Rain latest hour (hover to see other rain measurements)
** Current wind speed in m/s (hover to see current wind gust speed)